Year,Month,Day,Hour,Minute,Value (Times are PST for windgust in km/hr)
2017,05,22,00,13,4.80
2017,05,22,00,14,4.80
2017,05,22,00,15,4.80
2017,05,22,00,16,6.40
2017,05,22,00,17,4.80
2017,05,22,00,18,3.20
2017,05,22,00,19,3.20
2017,05,22,00,20,3.20
2017,05,22,00,21,1.60
2017,05,22,00,22,3.20
2017,05,22,00,23,3.20
2017,05,22,00,24,4.80
2017,05,22,00,25,3.20
2017,05,22,00,26,3.20
2017,05,22,00,27,1.60
2017,05,22,00,28,3.20
2017,05,22,00,29,3.20
2017,05,22,00,47,3.20
2017,05,22,00,48,3.20
2017,05,22,00,49,3.20
2017,05,22,00,50,1.60
2017,05,22,00,52,1.60
2017,05,22,00,55,1.60
2017,05,22,00,56,1.60
2017,05,22,00,57,3.20
2017,05,22,00,58,3.20
2017,05,22,00,59,3.20
2017,05,22,01,00,3.20
2017,05,22,01,01,3.20
2017,05,22,01,02,3.20
2017,05,22,01,03,3.20
2017,05,22,01,04,3.20
2017,05,22,01,05,3.20
2017,05,22,01,06,3.20
2017,05,22,01,07,4.80
2017,05,22,01,08,4.80
2017,05,22,01,09,3.20
2017,05,22,01,10,3.20
2017,05,22,01,11,1.60
2017,05,22,01,12,1.60
2017,05,22,01,13,1.60
2017,05,22,01,14,3.20
2017,05,22,01,15,1.60
2017,05,22,01,16,3.20
2017,05,22,01,17,1.60
2017,05,22,01,18,1.60
2017,05,22,01,19,3.20
2017,05,22,01,20,3.20
2017,05,22,01,21,1.60
2017,05,22,01,28,1.60
2017,05,22,01,30,3.20
2017,05,22,01,31,3.20
2017,05,22,01,32,3.20
2017,05,22,01,33,3.20
2017,05,22,01,34,4.80
2017,05,22,01,35,1.60
2017,05,22,01,40,4.80
2017,05,22,01,41,4.80
2017,05,22,01,42,4.80
2017,05,22,01,43,4.80
2017,05,22,01,44,4.80
2017,05,22,01,45,4.80
2017,05,22,01,46,4.80
2017,05,22,01,47,3.20
2017,05,22,01,48,4.80
2017,05,22,01,49,3.20
2017,05,22,01,50,3.20
2017,05,22,01,51,3.20
2017,05,22,01,52,3.20
2017,05,22,01,53,3.20
2017,05,22,01,54,3.20
2017,05,22,01,55,3.20
2017,05,22,01,56,3.20
2017,05,22,01,57,3.20
2017,05,22,01,58,3.20
2017,05,22,01,59,3.20
2017,05,22,02,00,3.20
2017,05,22,02,01,1.60
2017,05,22,02,02,3.20
2017,05,22,02,03,3.20
2017,05,22,02,04,4.80
2017,05,22,02,05,4.80
2017,05,22,02,08,3.20
2017,05,22,02,09,6.40
2017,05,22,02,10,6.40
2017,05,22,02,11,4.80
2017,05,22,02,12,3.20
2017,05,22,02,13,4.80
2017,05,22,02,14,1.60
2017,05,22,02,16,3.20
2017,05,22,02,17,3.20
2017,05,22,02,18,1.60
2017,05,22,02,19,1.60
2017,05,22,02,20,1.60
2017,05,22,02,27,3.20
2017,05,22,02,28,3.20
2017,05,22,02,29,3.20
2017,05,22,02,30,4.80
2017,05,22,02,31,4.80
2017,05,22,02,32,4.80
2017,05,22,02,33,4.80
2017,05,22,02,34,4.80
2017,05,22,02,35,3.20
2017,05,22,02,36,4.80
2017,05,22,02,37,4.80
2017,05,22,02,38,4.80
2017,05,22,02,39,4.80
2017,05,22,02,40,3.20
2017,05,22,02,41,3.20
2017,05,22,02,42,3.20
2017,05,22,02,43,3.20
2017,05,22,02,44,3.20
2017,05,22,02,45,3.20
2017,05,22,02,46,3.20
2017,05,22,02,47,4.80
2017,05,22,02,48,3.20
2017,05,22,02,49,6.40
2017,05,22,02,50,3.20
2017,05,22,02,51,3.20
2017,05,22,02,52,3.20
2017,05,22,02,56,6.40
2017,05,22,02,57,6.40
2017,05,22,02,58,3.20
2017,05,22,02,59,1.60
2017,05,22,03,00,1.60
2017,05,22,03,03,1.60
2017,05,22,03,11,3.20
2017,05,22,03,12,3.20
2017,05,22,03,13,3.20
2017,05,22,03,14,3.20
2017,05,22,03,15,3.20
2017,05,22,03,16,1.60
2017,05,22,03,17,3.20
2017,05,22,03,18,3.20
2017,05,22,03,19,1.60
2017,05,22,03,20,1.60
2017,05,22,03,25,1.60
2017,05,22,03,26,1.60
2017,05,22,03,27,3.20
2017,05,22,03,28,3.20
2017,05,22,03,29,3.20
2017,05,22,03,30,3.20
2017,05,22,03,31,1.60
2017,05,22,03,32,1.60
2017,05,22,03,33,1.60
2017,05,22,03,34,3.20
2017,05,22,03,35,3.20
2017,05,22,03,36,3.20
2017,05,22,03,37,1.60
2017,05,22,03,56,3.20
2017,05,22,03,57,1.60
2017,05,22,03,58,3.20
2017,05,22,04,00,3.20
2017,05,22,04,01,1.60
2017,05,22,04,02,1.60
2017,05,22,04,03,1.60
2017,05,22,04,04,1.60
2017,05,22,04,05,1.60
2017,05,22,04,06,1.60
2017,05,22,04,07,1.60
2017,05,22,04,08,1.60
2017,05,22,04,09,1.60
2017,05,22,04,13,1.60
2017,05,22,04,14,3.20
2017,05,22,04,15,3.20
2017,05,22,04,16,3.20
2017,05,22,04,17,3.20
2017,05,22,04,18,3.20
2017,05,22,04,19,3.20
2017,05,22,04,20,3.20
2017,05,22,04,21,3.20
2017,05,22,04,22,3.20
2017,05,22,04,23,3.20
2017,05,22,04,24,1.60
2017,05,22,04,25,1.60
2017,05,22,04,26,1.60
2017,05,22,04,27,1.60
2017,05,22,04,28,1.60
2017,05,22,04,36,3.20
2017,05,22,04,37,3.20
2017,05,22,04,38,3.20
2017,05,22,04,39,3.20
2017,05,22,04,40,1.60
2017,05,22,04,41,1.60
2017,05,22,04,42,3.20
2017,05,22,04,43,3.20
2017,05,22,04,44,3.20
2017,05,22,04,45,3.20
2017,05,22,04,46,6.40
2017,05,22,04,47,6.40
2017,05,22,04,48,6.40
2017,05,22,04,49,4.80
2017,05,22,04,50,3.20
2017,05,22,04,51,3.20
2017,05,22,04,52,3.20
2017,05,22,05,00,1.60
2017,05,22,05,01,1.60
2017,05,22,05,02,1.60
2017,05,22,05,03,3.20
2017,05,22,05,04,3.20
2017,05,22,05,05,3.20
2017,05,22,05,06,3.20
2017,05,22,05,07,1.60
2017,05,22,05,08,1.60
2017,05,22,05,09,1.60
2017,05,22,05,10,1.60
2017,05,22,05,11,1.60
2017,05,22,05,27,1.60
2017,05,22,05,28,1.60
2017,05,22,05,29,1.60
2017,05,22,05,30,3.20
2017,05,22,05,31,3.20
2017,05,22,05,32,1.60
2017,05,22,05,33,1.60
2017,05,22,05,45,3.20
2017,05,22,05,46,3.20
2017,05,22,05,47,3.20
2017,05,22,05,48,1.60
2017,05,22,05,51,3.20
2017,05,22,05,55,1.60
2017,05,22,05,56,4.80
2017,05,22,05,57,3.20
2017,05,22,05,58,3.20
2017,05,22,05,59,3.20
2017,05,22,06,00,3.20
2017,05,22,06,01,3.20
2017,05,22,06,02,3.20
2017,05,22,06,03,1.60
2017,05,22,06,04,1.60
2017,05,22,06,05,1.60
2017,05,22,06,08,3.20
2017,05,22,06,09,1.60
2017,05,22,06,10,3.20
2017,05,22,06,11,1.60
2017,05,22,06,12,1.60
2017,05,22,06,13,3.20
2017,05,22,06,14,1.60
2017,05,22,06,15,1.60
2017,05,22,06,16,1.60
2017,05,22,06,17,1.60
2017,05,22,06,18,3.20
2017,05,22,06,19,4.80
2017,05,22,06,20,4.80
2017,05,22,06,21,3.20
2017,05,22,06,22,3.20
2017,05,22,06,23,3.20
2017,05,22,06,24,1.60
2017,05,22,06,25,1.60
2017,05,22,06,26,1.60
2017,05,22,06,27,1.60
2017,05,22,06,31,1.60
2017,05,22,06,32,1.60
2017,05,22,06,33,1.60
2017,05,22,06,34,1.60
2017,05,22,07,25,3.20
2017,05,22,07,26,1.60
2017,05,22,07,27,3.20
2017,05,22,07,28,3.20
2017,05,22,07,29,3.20
2017,05,22,07,30,4.80
2017,05,22,07,31,4.80
2017,05,22,07,32,3.20
2017,05,22,07,33,1.60
2017,05,22,07,34,3.20
2017,05,22,07,35,1.60
2017,05,22,07,36,1.60
2017,05,22,07,38,4.80
2017,05,22,07,39,6.40
2017,05,22,07,40,4.80
2017,05,22,07,41,4.80
2017,05,22,07,42,4.80
2017,05,22,07,43,4.80
2017,05,22,07,44,4.80
2017,05,22,07,45,4.80
2017,05,22,07,46,3.20
2017,05,22,07,47,3.20
2017,05,22,07,48,1.60
2017,05,22,07,49,3.20
2017,05,22,07,50,3.20
2017,05,22,07,51,3.20
2017,05,22,07,52,3.20
2017,05,22,07,53,4.80
2017,05,22,07,54,3.20
2017,05,22,07,55,3.20
2017,05,22,07,56,3.20
2017,05,22,07,57,1.60
2017,05,22,07,58,3.20
2017,05,22,08,04,1.60
2017,05,22,08,09,3.20
2017,05,22,08,10,3.20
2017,05,22,08,11,4.80
2017,05,22,08,12,4.80
2017,05,22,08,13,3.20
2017,05,22,08,14,4.80
2017,05,22,08,15,1.60
2017,05,22,08,16,3.20
2017,05,22,08,17,3.20
2017,05,22,08,18,1.60
2017,05,22,08,19,4.80
2017,05,22,08,20,3.20
2017,05,22,08,21,4.80
2017,05,22,08,22,1.60
2017,05,22,08,23,3.20
2017,05,22,08,24,4.80
2017,05,22,08,25,4.80
2017,05,22,08,26,3.20
2017,05,22,08,27,4.80
2017,05,22,08,28,3.20
2017,05,22,08,29,3.20
2017,05,22,08,30,3.20
2017,05,22,08,31,3.20
2017,05,22,08,32,3.20
2017,05,22,08,33,3.20
2017,05,22,08,34,3.20
2017,05,22,08,35,1.60
2017,05,22,08,36,3.20
2017,05,22,08,37,3.20
2017,05,22,08,38,3.20
2017,05,22,08,39,3.20
2017,05,22,08,40,1.60
2017,05,22,08,43,3.20
2017,05,22,08,44,4.80
2017,05,22,08,45,4.80
2017,05,22,08,46,4.80
2017,05,22,08,47,6.40
2017,05,22,08,48,6.40
2017,05,22,08,49,6.40
2017,05,22,08,50,4.80
2017,05,22,08,51,3.20
2017,05,22,08,52,8.10
2017,05,22,08,53,6.40
2017,05,22,08,54,4.80
2017,05,22,08,55,6.40
2017,05,22,08,56,4.80
2017,05,22,08,57,3.20
2017,05,22,08,58,3.20
2017,05,22,08,59,4.80
2017,05,22,09,00,3.20
2017,05,22,09,01,3.20
2017,05,22,09,02,4.80
2017,05,22,09,03,4.80
2017,05,22,09,04,4.80
2017,05,22,09,05,4.80
2017,05,22,09,06,6.40
2017,05,22,09,07,6.40
2017,05,22,09,08,3.20
2017,05,22,09,09,3.20
2017,05,22,09,10,3.20
2017,05,22,09,11,4.80
2017,05,22,09,12,3.20
2017,05,22,09,13,4.80
2017,05,22,09,14,4.80
2017,05,22,09,15,4.80
2017,05,22,09,16,4.80
2017,05,22,09,17,6.40
2017,05,22,09,18,4.80
2017,05,22,09,19,6.40
2017,05,22,09,20,8.10
2017,05,22,09,21,4.80
2017,05,22,09,22,6.40
2017,05,22,09,23,4.80
2017,05,22,09,24,4.80
2017,05,22,09,25,6.40
2017,05,22,09,26,4.80
2017,05,22,09,27,4.80
2017,05,22,09,28,4.80
2017,05,22,09,29,3.20
2017,05,22,09,30,3.20
2017,05,22,09,31,3.20
2017,05,22,09,32,4.80
2017,05,22,09,33,4.80
2017,05,22,09,34,4.80
2017,05,22,09,35,4.80
2017,05,22,09,36,4.80
2017,05,22,09,37,4.80
2017,05,22,09,38,3.20
2017,05,22,09,39,6.40
2017,05,22,09,40,4.80
2017,05,22,09,41,6.40
2017,05,22,09,42,4.80
2017,05,22,09,43,6.40
2017,05,22,09,44,6.40
2017,05,22,09,45,6.40
2017,05,22,09,46,4.80
2017,05,22,09,47,6.40
2017,05,22,09,48,6.40
2017,05,22,09,49,6.40
2017,05,22,09,50,4.80
2017,05,22,09,51,6.40
2017,05,22,09,52,4.80
2017,05,22,09,53,4.80
2017,05,22,09,54,6.40
2017,05,22,09,55,6.40
2017,05,22,09,56,4.80
2017,05,22,09,57,4.80
2017,05,22,09,58,4.80
2017,05,22,09,59,3.20
2017,05,22,10,00,6.40
2017,05,22,10,01,4.80
2017,05,22,10,02,6.40
2017,05,22,10,03,3.20
2017,05,22,10,04,4.80
2017,05,22,10,05,3.20
2017,05,22,10,06,3.20
2017,05,22,10,07,4.80
2017,05,22,10,08,4.80
2017,05,22,10,09,8.10
2017,05,22,10,10,4.80
2017,05,22,10,11,4.80
2017,05,22,10,12,4.80
2017,05,22,10,13,8.10
2017,05,22,10,14,8.10
2017,05,22,10,15,6.40
2017,05,22,10,16,4.80
2017,05,22,10,17,9.60
2017,05,22,10,18,8.10
2017,05,22,10,19,9.60
2017,05,22,10,20,3.20
2017,05,22,10,21,3.20
2017,05,22,10,22,3.20
2017,05,22,10,23,6.40
2017,05,22,10,24,4.80
2017,05,22,10,25,9.60
2017,05,22,10,26,11.30
2017,05,22,10,27,4.80
2017,05,22,10,28,4.80
2017,05,22,10,29,4.80
2017,05,22,10,30,3.20
2017,05,22,10,31,6.40
2017,05,22,10,32,1.60
2017,05,22,10,33,1.60
2017,05,22,10,34,6.40
2017,05,22,10,35,8.10
2017,05,22,10,36,8.10
2017,05,22,10,37,8.10
2017,05,22,10,38,4.80
2017,05,22,10,39,4.80
2017,05,22,10,40,4.80
2017,05,22,10,41,3.20
2017,05,22,10,42,6.40
2017,05,22,10,43,9.60
2017,05,22,10,44,11.30
2017,05,22,10,45,6.40
2017,05,22,10,46,3.20
2017,05,22,10,47,1.60
2017,05,22,10,48,6.40
2017,05,22,10,49,4.80
2017,05,22,10,50,3.20
2017,05,22,10,51,3.20
2017,05,22,10,52,6.40
2017,05,22,10,53,8.10
2017,05,22,10,54,6.40
2017,05,22,10,55,4.80
2017,05,22,10,56,6.40
2017,05,22,10,57,3.20
2017,05,22,10,58,3.20
2017,05,22,10,59,3.20
2017,05,22,11,00,4.80
2017,05,22,11,01,4.80
2017,05,22,11,02,3.20
2017,05,22,11,03,3.20
2017,05,22,11,04,4.80
2017,05,22,11,05,6.40
2017,05,22,11,06,3.20
2017,05,22,11,07,3.20
2017,05,22,11,08,4.80
2017,05,22,11,09,4.80
2017,05,22,11,10,4.80
2017,05,22,11,11,6.40
2017,05,22,11,12,6.40
2017,05,22,11,13,9.60
2017,05,22,11,14,4.80
2017,05,22,11,15,3.20
2017,05,22,11,16,9.60
2017,05,22,11,17,6.40
2017,05,22,11,18,4.80
2017,05,22,11,19,6.40
2017,05,22,11,20,4.80
2017,05,22,11,21,4.80
2017,05,22,11,22,4.80
2017,05,22,11,23,6.40
2017,05,22,11,24,6.40
2017,05,22,11,25,6.40
2017,05,22,11,26,4.80
2017,05,22,11,27,3.20
2017,05,22,11,28,4.80
2017,05,22,11,29,1.60
2017,05,22,11,30,4.80
2017,05,22,11,31,4.80
2017,05,22,11,32,6.40
2017,05,22,11,33,6.40
2017,05,22,11,34,8.10
2017,05,22,11,35,8.10
2017,05,22,11,36,8.10
2017,05,22,11,37,6.40
2017,05,22,11,38,4.80
2017,05,22,11,39,6.40
2017,05,22,11,40,3.20
2017,05,22,11,41,3.20
2017,05,22,11,42,3.20
2017,05,22,11,43,4.80
2017,05,22,11,44,4.80
2017,05,22,11,45,6.40
2017,05,22,11,46,4.80
2017,05,22,11,47,4.80
2017,05,22,11,48,6.40
2017,05,22,11,49,4.80
2017,05,22,11,50,8.10
2017,05,22,11,51,6.40
2017,05,22,11,52,4.80
2017,05,22,11,53,6.40
2017,05,22,11,54,6.40
2017,05,22,11,55,8.10
2017,05,22,11,56,6.40
2017,05,22,11,57,4.80
2017,05,22,11,58,6.40
2017,05,22,11,59,6.40
2017,05,22,12,00,6.40
2017,05,22,12,01,6.40
2017,05,22,12,02,4.80
2017,05,22,12,03,4.80
2017,05,22,12,04,4.80
2017,05,22,12,05,3.20
2017,05,22,12,06,3.20
2017,05,22,12,07,3.20
2017,05,22,12,08,4.80
2017,05,22,12,09,4.80
2017,05,22,12,10,3.20
2017,05,22,12,11,3.20
2017,05,22,12,12,6.40
2017,05,22,12,13,6.40
2017,05,22,12,14,6.40
2017,05,22,12,15,6.40
2017,05,22,12,16,6.40
2017,05,22,12,17,3.20
2017,05,22,12,18,3.20
2017,05,22,12,19,4.80
2017,05,22,12,20,4.80
2017,05,22,12,21,3.20
2017,05,22,12,22,4.80
2017,05,22,12,23,6.40
2017,05,22,12,24,6.40
2017,05,22,12,25,9.60
2017,05,22,12,26,8.10
2017,05,22,12,27,9.60
2017,05,22,12,28,6.40
2017,05,22,12,29,4.80
2017,05,22,12,30,6.40
2017,05,22,12,31,6.40
2017,05,22,12,32,4.80
2017,05,22,12,33,4.80
2017,05,22,12,34,8.10
2017,05,22,12,35,6.40
2017,05,22,12,36,4.80
2017,05,22,12,37,9.60
2017,05,22,12,38,4.80
2017,05,22,12,39,4.80
2017,05,22,12,40,6.40
2017,05,22,12,41,6.40
2017,05,22,12,42,8.10
2017,05,22,12,43,6.40
2017,05,22,12,44,4.80
2017,05,22,12,45,4.80
2017,05,22,12,46,4.80
2017,05,22,12,47,3.20
2017,05,22,12,48,6.40
2017,05,22,12,49,6.40
2017,05,22,12,50,4.80
2017,05,22,12,51,6.40
2017,05,22,12,52,4.80
2017,05,22,12,53,8.10
2017,05,22,12,54,6.40
2017,05,22,12,55,6.40
2017,05,22,12,56,6.40
2017,05,22,12,57,6.40
2017,05,22,12,58,6.40
2017,05,22,12,59,6.40
2017,05,22,13,00,4.80
2017,05,22,13,01,6.40
2017,05,22,13,02,6.40
2017,05,22,13,03,9.60
2017,05,22,13,04,6.40
2017,05,22,13,05,6.40
2017,05,22,13,06,6.40
2017,05,22,13,07,6.40
2017,05,22,13,08,4.80
2017,05,22,13,09,3.20
2017,05,22,13,10,4.80
2017,05,22,13,11,4.80
2017,05,22,13,12,6.40
2017,05,22,13,13,6.40
2017,05,22,13,14,9.60
2017,05,22,13,15,6.40
2017,05,22,13,16,6.40
2017,05,22,13,17,4.80
2017,05,22,13,18,4.80
2017,05,22,13,19,3.20
2017,05,22,13,20,6.40
2017,05,22,13,21,4.80
2017,05,22,13,22,4.80
2017,05,22,13,23,4.80
2017,05,22,13,24,8.10
2017,05,22,13,25,9.60
2017,05,22,13,26,6.40
2017,05,22,13,27,6.40
2017,05,22,13,28,9.60
2017,05,22,13,29,9.60
2017,05,22,13,30,4.80
2017,05,22,13,31,4.80
2017,05,22,13,32,8.10
2017,05,22,13,33,8.10
2017,05,22,13,34,6.40
2017,05,22,13,35,9.60
2017,05,22,13,36,12.90
2017,05,22,13,37,9.60
2017,05,22,13,38,11.30
2017,05,22,13,39,9.60
2017,05,22,13,40,9.60
2017,05,22,13,41,6.40
2017,05,22,13,42,6.40
2017,05,22,13,43,9.60
2017,05,22,13,44,8.10
2017,05,22,13,45,3.20
2017,05,22,13,46,1.60
2017,05,22,13,47,3.20
2017,05,22,13,48,6.40
2017,05,22,13,49,8.10
2017,05,22,13,50,11.30
2017,05,22,13,51,8.10
2017,05,22,13,52,8.10
2017,05,22,13,53,6.40
2017,05,22,13,54,6.40
2017,05,22,13,55,11.30
2017,05,22,13,56,11.30
2017,05,22,13,57,4.80
2017,05,22,13,58,9.60
2017,05,22,13,59,9.60
2017,05,22,14,00,4.80
2017,05,22,14,01,8.10
2017,05,22,14,02,9.60
2017,05,22,14,03,6.40
2017,05,22,14,04,6.40
2017,05,22,14,05,6.40
2017,05,22,14,06,9.60
2017,05,22,14,07,9.60
2017,05,22,14,08,11.30
2017,05,22,14,09,6.40
2017,05,22,14,10,6.40
2017,05,22,14,11,8.10
2017,05,22,14,12,9.60
2017,05,22,14,13,11.30
2017,05,22,14,14,9.60
2017,05,22,14,15,6.40
2017,05,22,14,16,6.40
2017,05,22,14,17,9.60
2017,05,22,14,18,8.10
2017,05,22,14,19,9.60
2017,05,22,14,20,6.40
2017,05,22,14,21,8.10
2017,05,22,14,22,12.90
2017,05,22,14,23,12.90
2017,05,22,14,24,12.90
2017,05,22,14,25,12.90
2017,05,22,14,26,12.90
2017,05,22,14,27,16.10
2017,05,22,14,28,11.30
2017,05,22,14,29,6.40
2017,05,22,14,30,6.40
2017,05,22,14,31,9.60
2017,05,22,14,32,12.90
2017,05,22,14,33,11.30
2017,05,22,14,34,6.40
2017,05,22,14,35,9.60
2017,05,22,14,36,11.30
2017,05,22,14,37,11.30
2017,05,22,14,38,11.30
2017,05,22,14,39,9.60
2017,05,22,14,40,11.30
2017,05,22,14,41,6.40
2017,05,22,14,42,14.50
2017,05,22,14,43,14.50
2017,05,22,14,44,8.10
2017,05,22,14,45,6.40
2017,05,22,14,46,9.60
2017,05,22,14,47,12.90
2017,05,22,14,48,11.30
2017,05,22,14,49,9.60
2017,05,22,14,50,9.60
2017,05,22,14,51,9.60
2017,05,22,14,52,8.10
2017,05,22,14,53,8.10
2017,05,22,14,54,11.30
2017,05,22,14,55,9.60
2017,05,22,14,56,11.30
2017,05,22,14,57,11.30
2017,05,22,14,58,11.30
2017,05,22,14,59,11.30
2017,05,22,15,00,6.40
2017,05,22,15,01,6.40
2017,05,22,15,02,6.40
2017,05,22,15,03,4.80
2017,05,22,15,04,6.40
2017,05,22,15,05,4.80
2017,05,22,15,06,3.20
2017,05,22,15,07,4.80
2017,05,22,15,08,9.60
2017,05,22,15,09,4.80
2017,05,22,15,10,6.40
2017,05,22,15,11,4.80
2017,05,22,15,12,8.10
2017,05,22,15,13,11.30
2017,05,22,15,14,9.60
2017,05,22,15,15,6.40
2017,05,22,15,16,8.10
2017,05,22,15,17,8.10
2017,05,22,15,18,8.10
2017,05,22,15,19,9.60
2017,05,22,15,20,12.90
2017,05,22,15,21,12.90
2017,05,22,15,22,8.10
2017,05,22,15,23,8.10
2017,05,22,15,24,4.80
2017,05,22,15,25,8.10
2017,05,22,15,26,6.40
2017,05,22,15,27,9.60
2017,05,22,15,28,6.40
2017,05,22,15,29,4.80
2017,05,22,15,30,9.60
2017,05,22,15,31,6.40
2017,05,22,15,32,6.40
2017,05,22,15,33,8.10
2017,05,22,15,34,6.40
2017,05,22,15,35,4.80
2017,05,22,15,36,11.30
2017,05,22,15,37,4.80
2017,05,22,15,38,4.80
2017,05,22,15,39,11.30
2017,05,22,15,40,8.10
2017,05,22,15,41,8.10
2017,05,22,15,42,9.60
2017,05,22,15,43,6.40
2017,05,22,15,44,4.80
2017,05,22,15,45,8.10
2017,05,22,15,46,9.60
2017,05,22,15,47,6.40
2017,05,22,15,48,6.40
2017,05,22,15,49,6.40
2017,05,22,15,50,4.80
2017,05,22,15,51,11.30
2017,05,22,15,52,9.60
2017,05,22,15,53,6.40
2017,05,22,15,54,6.40
2017,05,22,15,55,6.40
2017,05,22,15,56,3.20
2017,05,22,15,57,6.40
2017,05,22,15,58,6.40
2017,05,22,15,59,4.80
2017,05,22,16,00,9.60
2017,05,22,16,01,4.80
2017,05,22,16,02,4.80
2017,05,22,16,03,6.40
2017,05,22,16,04,6.40
2017,05,22,16,05,11.30
2017,05,22,16,06,6.40
2017,05,22,16,07,6.40
2017,05,22,16,08,8.10
2017,05,22,16,09,9.60
2017,05,22,16,10,6.40
2017,05,22,16,11,3.20
2017,05,22,16,12,4.80
2017,05,22,16,13,4.80
2017,05,22,16,14,8.10
2017,05,22,16,15,4.80
2017,05,22,16,16,6.40
2017,05,22,16,17,9.60
2017,05,22,16,18,8.10
2017,05,22,16,19,3.20
2017,05,22,16,20,4.80
2017,05,22,16,21,3.20
2017,05,22,16,22,3.20
2017,05,22,16,23,8.10
2017,05,22,16,24,9.60
2017,05,22,16,25,8.10
2017,05,22,16,26,6.40
2017,05,22,16,27,6.40
2017,05,22,16,28,6.40
2017,05,22,16,29,4.80
2017,05,22,16,30,4.80
2017,05,22,16,31,4.80
2017,05,22,16,32,6.40
2017,05,22,16,33,8.10
2017,05,22,16,34,11.30
2017,05,22,16,35,6.40
2017,05,22,16,36,11.30
2017,05,22,16,37,9.60
2017,05,22,16,38,6.40
2017,05,22,16,39,6.40
2017,05,22,16,40,9.60
2017,05,22,16,41,11.30
2017,05,22,16,42,11.30
2017,05,22,16,43,11.30
2017,05,22,16,44,9.60
2017,05,22,16,45,11.30
2017,05,22,16,46,9.60
2017,05,22,16,47,9.60
2017,05,22,16,48,6.40
2017,05,22,16,49,6.40
2017,05,22,16,50,11.30
2017,05,22,16,51,9.60
2017,05,22,16,52,9.60
2017,05,22,16,53,9.60
2017,05,22,16,54,6.40
2017,05,22,16,55,3.20
2017,05,22,16,56,4.80
2017,05,22,16,57,6.40
2017,05,22,16,58,8.10
2017,05,22,16,59,11.30
2017,05,22,17,00,6.40
2017,05,22,17,01,9.60
2017,05,22,17,02,6.40
2017,05,22,17,03,9.60
2017,05,22,17,04,6.40
2017,05,22,17,05,8.10
2017,05,22,17,06,6.40
2017,05,22,17,07,8.10
2017,05,22,17,08,6.40
2017,05,22,17,09,8.10
2017,05,22,17,10,4.80
2017,05,22,17,11,4.80
2017,05,22,17,12,6.40
2017,05,22,17,13,6.40
2017,05,22,17,14,3.20
2017,05,22,17,15,1.60
2017,05,22,17,16,4.80
2017,05,22,17,17,6.40
2017,05,22,17,18,4.80
2017,05,22,17,19,4.80
2017,05,22,17,20,4.80
2017,05,22,17,21,9.60
2017,05,22,17,22,6.40
2017,05,22,17,23,3.20
2017,05,22,17,24,6.40
2017,05,22,17,25,4.80
2017,05,22,17,26,3.20
2017,05,22,17,27,1.60
2017,05,22,17,28,4.80
2017,05,22,17,29,3.20
2017,05,22,17,31,1.60
2017,05,22,17,32,4.80
2017,05,22,17,33,4.80
2017,05,22,17,34,3.20
2017,05,22,17,35,4.80
2017,05,22,17,36,3.20
2017,05,22,17,37,3.20
2017,05,22,17,38,1.60
2017,05,22,17,39,1.60
2017,05,22,17,40,3.20
2017,05,22,17,41,4.80
2017,05,22,17,42,3.20
2017,05,22,17,43,1.60
2017,05,22,18,01,4.80
2017,05,22,18,02,3.20
2017,05,22,18,03,3.20
2017,05,22,18,04,3.20
2017,05,22,18,05,3.20
2017,05,22,18,06,3.20
2017,05,22,18,07,4.80
2017,05,22,18,08,3.20
2017,05,22,18,09,1.60
2017,05,22,18,10,4.80
2017,05,22,18,11,3.20
2017,05,22,18,12,3.20
2017,05,22,18,13,6.40
2017,05,22,18,14,4.80
2017,05,22,18,15,6.40
2017,05,22,18,16,4.80
2017,05,22,18,17,4.80
2017,05,22,18,18,4.80
2017,05,22,18,19,4.80
2017,05,22,18,20,4.80
2017,05,22,18,21,6.40
2017,05,22,18,22,6.40
2017,05,22,18,23,1.60
2017,05,22,18,24,4.80
2017,05,22,18,25,4.80
2017,05,22,18,26,3.20
2017,05,22,18,30,3.20
2017,05,22,18,31,4.80
2017,05,22,18,32,8.10
2017,05,22,18,33,3.20
2017,05,22,18,34,1.60
2017,05,22,18,35,6.40
2017,05,22,18,36,4.80
2017,05,22,18,37,4.80
2017,05,22,18,38,4.80
2017,05,22,18,39,3.20
2017,05,22,18,40,6.40
2017,05,22,18,41,4.80
2017,05,22,18,42,3.20
2017,05,22,18,43,4.80
2017,05,22,18,44,6.40
2017,05,22,18,45,4.80
2017,05,22,18,46,1.60
2017,05,22,18,47,3.20
2017,05,22,18,48,3.20
2017,05,22,18,49,4.80
2017,05,22,18,50,6.40
2017,05,22,18,51,3.20
2017,05,22,18,52,6.40
2017,05,22,18,53,4.80
2017,05,22,18,54,9.60
2017,05,22,18,55,6.40
2017,05,22,18,56,6.40
2017,05,22,18,57,6.40
2017,05,22,18,58,4.80
2017,05,22,18,59,1.60
2017,05,22,19,00,3.20
2017,05,22,19,01,1.60
2017,05,22,19,02,3.20
2017,05,22,19,03,3.20
2017,05,22,19,04,3.20
2017,05,22,19,05,1.60
2017,05,22,19,06,1.60
2017,05,22,19,07,1.60
2017,05,22,19,10,3.20
2017,05,22,19,11,3.20
2017,05,22,19,12,4.80
2017,05,22,19,13,4.80
2017,05,22,19,14,3.20
2017,05,22,19,15,1.60
2017,05,22,19,16,1.60
2017,05,22,19,17,1.60
2017,05,22,19,18,4.80
2017,05,22,19,19,4.80
2017,05,22,19,20,3.20
2017,05,22,19,21,3.20
2017,05,22,19,22,3.20
2017,05,22,19,23,1.60
2017,05,22,19,24,1.60
2017,05,22,19,25,3.20
2017,05,22,19,26,4.80
2017,05,22,19,27,6.40
2017,05,22,19,28,3.20
2017,05,22,19,29,3.20
2017,05,22,19,30,3.20
2017,05,22,19,31,3.20
2017,05,22,19,32,3.20
2017,05,22,19,33,4.80
2017,05,22,19,34,4.80
2017,05,22,19,35,3.20
2017,05,22,19,36,3.20
2017,05,22,19,37,3.20
2017,05,22,19,38,1.60
2017,05,22,19,39,1.60
2017,05,22,19,40,1.60
2017,05,22,19,41,3.20
2017,05,22,19,42,1.60
2017,05,22,19,44,3.20
2017,05,22,19,45,3.20
2017,05,22,19,46,1.60
2017,05,22,19,55,6.40
2017,05,22,19,56,6.40
2017,05,22,19,57,3.20
2017,05,22,19,58,3.20
2017,05,22,19,59,3.20
2017,05,22,20,00,1.60
2017,05,22,20,01,1.60
2017,05,22,20,04,1.60
2017,05,22,20,05,6.40
2017,05,22,20,06,6.40
2017,05,22,20,07,8.10
2017,05,22,20,08,9.60
2017,05,22,20,09,9.60
2017,05,22,20,10,6.40
2017,05,22,20,11,6.40
2017,05,22,20,12,4.80
2017,05,22,20,13,6.40
2017,05,22,20,14,8.10
2017,05,22,20,15,8.10
2017,05,22,20,16,4.80
2017,05,22,20,17,4.80
2017,05,22,20,18,6.40
2017,05,22,20,19,3.20
2017,05,22,20,20,6.40
2017,05,22,20,21,6.40
2017,05,22,20,22,6.40
2017,05,22,20,23,3.20
2017,05,22,20,24,3.20
2017,05,22,20,25,6.40
2017,05,22,20,26,6.40
2017,05,22,20,27,3.20
2017,05,22,20,28,3.20
2017,05,22,20,29,6.40
2017,05,22,20,30,3.20
2017,05,22,20,31,6.40
2017,05,22,20,32,8.10
2017,05,22,20,33,6.40
2017,05,22,20,34,6.40
2017,05,22,20,35,3.20
2017,05,22,20,36,3.20
2017,05,22,20,37,6.40
2017,05,22,20,38,3.20
2017,05,22,20,39,3.20
2017,05,22,20,40,3.20
2017,05,22,20,41,6.40
2017,05,22,20,42,6.40
2017,05,22,20,43,4.80
2017,05,22,20,44,4.80
2017,05,22,20,45,4.80
2017,05,22,20,46,4.80
2017,05,22,20,47,4.80
2017,05,22,20,48,3.20
2017,05,22,20,49,1.60
2017,05,22,20,50,3.20
2017,05,22,20,51,3.20
2017,05,22,20,52,3.20
2017,05,22,20,53,4.80
2017,05,22,20,54,6.40
2017,05,22,20,55,6.40
2017,05,22,20,56,3.20
2017,05,22,20,57,6.40
2017,05,22,20,58,4.80
2017,05,22,20,59,4.80
2017,05,22,21,00,4.80
2017,05,22,21,01,6.40
2017,05,22,21,02,6.40
2017,05,22,21,03,6.40
2017,05,22,21,04,3.20
2017,05,22,21,05,3.20
2017,05,22,21,06,3.20
2017,05,22,21,07,4.80
2017,05,22,21,08,6.40
2017,05,22,21,09,3.20
2017,05,22,21,10,3.20
2017,05,22,21,11,3.20
2017,05,22,21,12,3.20
2017,05,22,21,13,4.80
2017,05,22,21,14,4.80
2017,05,22,21,15,4.80
2017,05,22,21,16,6.40
2017,05,22,21,17,6.40
2017,05,22,21,18,4.80
2017,05,22,21,19,4.80
2017,05,22,21,20,4.80
2017,05,22,21,21,4.80
2017,05,22,21,22,4.80
2017,05,22,21,23,3.20
2017,05,22,21,24,3.20
2017,05,22,21,25,4.80
2017,05,22,21,26,4.80
2017,05,22,21,27,4.80
2017,05,22,21,28,4.80
2017,05,22,21,29,4.80
2017,05,22,21,30,4.80
2017,05,22,21,31,4.80
2017,05,22,21,32,3.20
2017,05,22,21,35,1.60
2017,05,22,21,36,1.60
2017,05,22,21,37,1.60
2017,05,22,21,38,3.20
2017,05,22,21,39,1.60
2017,05,22,21,40,1.60
2017,05,22,21,41,3.20
2017,05,22,21,42,3.20
2017,05,22,21,43,3.20
2017,05,22,21,44,3.20
2017,05,22,21,45,3.20
2017,05,22,21,46,3.20
2017,05,22,21,47,3.20
2017,05,22,21,48,4.80
2017,05,22,21,49,3.20
2017,05,22,21,50,3.20
2017,05,22,21,51,3.20
2017,05,22,21,52,3.20
2017,05,22,21,53,3.20
2017,05,22,21,54,3.20
2017,05,22,21,55,3.20
2017,05,22,21,56,1.60
2017,05,22,21,58,1.60
2017,05,22,21,59,3.20
2017,05,22,22,00,4.80
2017,05,22,22,01,3.20
2017,05,22,22,02,3.20
2017,05,22,22,03,1.60
2017,05,22,22,05,1.60